EHI
1 4 9 13 16 20 20 18 13 8 4 2 2 1 0 0 0 0 0 0 0 1 2 2 2 2 1 0 0 0 0 0 0 0 0 0 0 0 0 0 0 0 0
1 5 9 13 17 19 20 19 16 10 6 3 1 0 0 0 0 0 0 0 0 0 1 1 3 4 2 0 0 0 0 0 0 0 0 0 0 0 0 0 0 0 0
3 5 9 13 17 17 17 19 17 13 8 5 2 1 0 0 0 0 0 0 0 0 0 1 3 4 3 1 1 1 0 1 2 1 0 0 0 0 0 0 0 0 0
4 5 7 11 12 11 11 13 14 10 6 4 3 2 1 0 0 0 0 0 1 2 2 4 5 4 3 2 2 2 1 2 3 1 0 0 0 0 0 0 0 0 0
3 4 6 8 8 7 7 8 9 6 4 2 2 1 1 1 1 0 0 0 1 3 6 8 8 7 4 3 3 2 1 2 2 1 0 0 0 0 0 0 0 0 0
2 4 8 9 8 6 6 6 6 5 3 2 1 0 0 1 2 1 0 0 2 4 7 10 11 10 6 4 3 3 1 1 1 0 0 0 0 0 0 0 0 0 0
1 5 9 10 9 7 7 6 5 5 5 3 2 0 1 2 3 2 1 0 2 4 7 9 12 12 8 4 2 2 2 1 0 0 0 0 0 0 0 0 0 0 0
2 6 9 9 9 8 7 6 5 5 6 4 2 0 1 2 3 2 1 0 1 3 4 7 11 12 8 3 1 1 1 1 0 0 0 0 1 1 1 0 0 0 0
3 5 8 7 7 8 8 7 6 5 5 3 1 0 1 2 2 1 0 0 0 1 2 5 9 10 6 2 1 1 0 0 0 0 0 0 1 2 2 1 0 0 0
2 3 5 5 5 7 7 6 4 3 2 1 0 0 1 1 1 1 0 0 0 0 1 3 6 7 5 1 0 0 0 0 0 0 0 0 0 1 2 1 0 0 0
0 1 3 3 4 5 5 3 1 1 1 0 0 0 0 0 0 0 0 0 0 0 0 1 4 5 3 1 0 0 0 0 0 0 0 0 0 0 1 1 0 0 0
0 0 1 1 2 3 3 2 1 0 0 0 0 0 0 0 0 0 0 0 0 0 0 1 2 3 2 0 0 0 0 0 0 0 0 0 0 0 0 1 1 0 0
0 0 0 0 1 3 3 3 2 1 0 0 0 0 0 0 0 0 0 0 0 0 0 0 1 1 1 0 0 0 0 0 0 0 0 0 0 0 0 0 1 0 0
0 0 0 0 1 2 3 3 3 1 0 0 0 0 0 0 0 0 0 0 0 0 0 0 0 0 0 0 0 0 0 0 0 0 0 0 0 0 0 0 0 0 0
0 0 0 0 0 1 3 3 3 2 1 0 0 0 0 0 0 0 0 0 0 0 0 0 0 0 0 0 0 0 0 0 0 0 0 0 0 0 0 0 0 0 0
0 0 0 0 0 1 2 3 3 2 1 0 0 0 0 0 0 0 0 0 0 0 0 0 0 0 0 0 0 0 0 0 0 0 0 0 0 0 0 0 0 0 0
0 0 0 0 0 0 1 2 2 1 0 0 0 0 0 0 0 0 0 0 0 0 0 0 0 0 0 0 0 0 0 0 0 0 0 0 0 0 0 0 0 0 0
0 0 0 0 0 0 0 1 2 1 0 0 0 0 0 0 0 0 0 0 0 0 0 0 0 0 0 0 0 0 0 0 0 0 0 0 0 0 0 0 0 0 0
0 0 0 0 0 0 0 1 1 1 0 0 0 0 0 0 0 0 0 0 0 0 0 0 0 0 0 0 0 0 0 0 0 0 0 0 0 0 0 0 0 0 0
0 0 0 0 0 0 0 0 0 0 0 0 0 0 0 0 0 0 0 0 0 0 0 0 0 0 0 0 0 0 0 0 0 0 0 0 0 0 0 0 0 0 0
0 0 0 0 0 1 1 1 0 0 0 0 0 0 0 0 0 0 0 0 0 0 0 0 0 0 0 0 0 0 0 0 0 0 0 0 0 0 0 0 0 0 0
0 0 0 0 0 1 2 1 0 0 0 0 0 0 0 0 0 0 0 0 0 0 0 0 0 0 0 0 0 0 0 0 0 0 0 0 0 0 0 0 0 0 0
0 0 0 0 0 1 2 1 1 0 0 0 0 0 0 0 0 0 0 0 0 0 0 0 0 0 0 0 0 0 0 0 0 0 0 0 0 0 0 0 0 0 0
0 0 0 0 0 1 2 1 0 0 0 0 0 0 0 0 0 0 0 0 0 0 0 0 0 0 0 0 0 0 0 0 0 0 0 0 0 0 0 0 0 0 0
0 0 0 0 0 1 2 1 0 0 0 0 0 0 0 0 0 0 0 0 0 0 0 0 0 0 0 0 0 0 0 0 0 0 0 0 0 0 0 0 0 0 0
0 0 0 0 0 1 2 2 1 0 0 0 0 0 0 0 0 0 0 0 0 0 0 0 0 0 0 0 0 0 0 0 0 0 0 0 0 0 0 0 0 0 0
Wind_Speed
4 7 9 8 8 7 6 5 4 4 3 3 3 3 3 4 4 5 5 5 5 5 5 6 6 6 7 7 7 7 8 8 9 10 10 10 9 9 9 9 9 7 12
5 8 10 9 9 8 7 6 5 3 3 2 2 2 2 3 4 4 5 5 5 5 5 6 6 6 7 7 7 7 7 8 9 9 8 8 8 8 9 9 9 7 11
6 8 8 9 9 9 8 7 6 4 3 2 1 1 1 2 3 3 4 5 5 5 5 5 6 6 7 7 8 7 7 8 8 8 7 4 5 8 9 9 10 10 11
7 8 8 9 9 9 8 7 7 5 4 2 1 1 1 2 2 3 4 5 5 5 5 5 5 6 6 7 8 8 8 7 7 5 3 3 4 8 9 9 10 10 10
6 7 7 9 9 8 8 8 7 6 4 4 2 1 0 1 2 3 3 4 5 5 5 6 5 6 6 7 8 8 8 7 5 3 1 3 4 8 10 10 10 10 10
5 7 6 8 7 8 7 7 7 6 5 4 3 2 1 1 1 2 3 3 4 5 5 6 6 6 7 8 8 8 9 7 4 3 2 3 4 9 10 10 10 10 10
5 5 5 6 6 6 6 6 6 6 4 4 3 3 2 2 2 2 3 3 4 5 5 6 7 7 7 8 9 9 9 7 4 2 2 3 5 10 10 10 10 10 10
4 4 4 4 4 4 5 5 5 5 4 3 3 2 2 2 2 2 3 4 4 5 6 6 7 8 8 8 9 9 9 7 6 4 3 4 8 11 10 9 10 10 9
4 3 3 2 2 3 3 4 4 4 4 3 3 3 3 3 4 4 4 4 5 5 6 7 8 8 9 9 9 9 9 8 4 3 4 4 9 11 10 10 10 10 9
3 3 3 2 2 2 1 2 3 3 3 3 3 3 4 4 4 4 4 5 5 6 6 7 8 8 9 9 9 9 9 7 5 3 3 5 11 11 11 11 10 10 10
2 3 3 3 3 3 2 2 2 2 2 3 2 3 2 1 2 3 4 5 6 7 8 8 8 8 8 9 10 9 7 4 5 3 3 8 12 12 12 12 11 10 10
2 2 3 3 3 3 3 2 1 2 2 2 2 2 1 1 2 3 2 4 5 7 7 8 8 8 6 4 6 8 4 6 5 4 4 12 13 13 13 13 12 11 11
2 3 3 2 2 2 2 1 1 1 1 2 2 2 2 1 1 1 1 1 2 4 3 4 5 4 4 4 4 5 6 6 4 4 6 13 14 15 14 14 13 13 12
2 2 3 2 1 2 2 2 1 1 1 1 2 2 1 1 1 1 1 1 1 1 2 2 3 4 5 5 6 7 7 5 4 3 6 13 14 15 16 15 14 14 13
1 2 2 1 1 1 1 2 1 1 1 1 1 2 2 1 1 1 1 1 2 2 2 2 3 4 5 5 6 6 7 7 6 4 5 12 13 14 16 16 15 15 14
0 1 1 1 1 1 1 1 1 1 1 1 1 2 2 1 1 1 2 2 2 2 2 3 3 4 4 4 6 6 6 6 6 5 5 8 12 13 15 17 16 16 15
1 1 1 1 2 1 1 2 1 1 1 1 1 2 2 2 2 2 2 2 2 2 2 2 3 2 3 4 5 5 5 6 5 6 6 6 7 11 13 16 17 17 17
1 1 0 1 1 2 1 2 2 1 1 1 2 2 2 2 2 2 2 2 2 2 2 2 3 3 3 3 4 4 4 4 5 6 6 6 6 6 10 14 16 18 18
1 1 1 1 1 2 2 2 2 2 2 2 2 2 2 3 3 2 2 2 2 2 2 3 3 3 3 3 4 4 3 4 5 5 6 7 7 7 6 10 14 16 17
1 1 1 1 1 2 2 1 1 2 2 2 2 2 3 3 3 2 2 2 3 2 3 3 3 3 3 3 3 3 3 4 4 5 6 6 7 8 8 8 8 9 14
2 1 1 1 1 1 1 1 2 2 2 2 2 3 3 3 4 3 3 3 2 3 4 4 3 4 3 2 2 2 3 4 5 4 4 5 6 7 7 8 6 5 6
2 2 1 2 2 2 2 2 2 3 3 3 3 3 4 4 4 3 3 3 3 3 4 4 4 3 3 2 2 1 2 3 4 5 5 5 6 5 6 8 7 7 6
1 1 1 2 2 3 3 2 2 2 2 2 3 3 4 4 4 4 4 4 4 4 4 5 4 5 4 4 3 3 3 3 2 3 5 5 6 5 6 6 7 8 7
2 1 2 3 3 4 3 3 4 3 4 4 4 4 5 5 5 5 5 5 4 4 5 5 5 4 5 5 4 4 4 2 2 2 3 4 6 6 6 6 7 7 7
2 2 3 3 4 4 4 4 5 5 4 4 4 5 5 5 5 6 5 5 5 5 5 6 5 6 5 5 4 4 4 3 4 3 4 4 4 5 6 7 6 6 7
2 2 3 4 5 5 4 5 6 6 6 5 5 5 5 4 4 6 5 5 5 5 6 6 6 7 6 6 5 5 4 4 4 4 4 5 5 4 5 5 6 6 6
Wind_Direction
55 82 67 51 47 50 59 70 87 90 96 105 116 124 132 140 148 151 148 146 143 144 146 145 146 144 138 129 120 111 110 108 108 105 106 108 106 105 104 103 98 92 98
70 85 71 53 47 46 51 59 63 70 77 87 110 135 152 155 158 167 168 164 165 166 163 160 156 152 149 141 133 128 125 123 117 116 114 115 115 114 110 106 102 102 102
69 77 72 55 47 42 43 47 51 55 64 69 89 132 175 176 183 181 186 183 183 181 175 174 167 161 155 151 145 143 140 139 136 135 133 131 130 127 119 113 111 111 107
71 78 71 59 50 43 41 42 45 44 42 42 52 91 179 198 213 206 203 201 196 189 179 171 166 165 158 156 154 153 152 154 153 156 155 147 139 134 130 124 120 117 113
73 83 75 62 51 44 39 38 39 39 35 27 27 32 110 212 213 217 215 206 202 196 185 176 165 161 163 160 160 162 163 165 165 166 157 126 124 137 134 131 128 124 120
67 84 83 68 56 45 39 34 33 31 30 25 18 6 328 273 241 232 225 217 212 201 190 182 175 169 168 170 170 172 176 176 180 190 176 137 129 141 138 136 133 133 130
52 73 86 73 63 53 42 34 31 26 22 19 12 359 329 290 266 245 232 221 216 212 202 192 182 177 174 178 182 184 184 188 191 198 165 135 135 146 146 145 142 141 137
47 70 94 82 69 58 47 37 29 21 14 7 354 335 318 286 262 251 235 229 224 220 212 203 194 186 183 185 192 192 192 196 197 197 166 144 147 152 156 157 154 150 145
36 52 73 91 77 56 46 38 30 12 1 351 335 308 291 281 260 245 237 229 226 220 219 213 206 200 196 192 196 200 198 202 215 198 174 155 156 162 165 164 162 158 155
34 37 50 49 47 35 29 31 22 352 336 328 313 298 289 279 265 247 234 230 229 222 221 220 214 208 202 196 196 203 201 203 215 212 175 160 163 173 174 171 169 167 163
36 37 41 36 29 12 351 16 351 335 322 315 304 306 303 280 271 256 237 234 227 226 224 220 217 211 205 199 196 199 198 205 203 208 180 168 173 182 182 179 177 176 171
28 37 49 38 18 359 349 358 325 346 344 325 335 335 307 304 292 298 273 253 238 233 228 223 220 209 198 197 198 193 203 206 204 198 180 174 183 190 189 185 182 182 179
34 39 48 39 18 358 335 332 334 341 340 333 337 335 318 324 316 316 289 257 242 235 228 225 215 209 200 193 193 199 210 205 203 192 178 180 189 195 195 191 189 188 187
49 53 50 36 12 360 344 321 313 337 334 329 320 312 317 312 315 295 267 258 244 234 231 219 217 218 211 202 198 204 211 211 200 190 180 182 189 198 199 198 196 194 191
38 65 62 38 24 359 329 304 331 323 320 315 319 304 308 308 300 294 280 263 260 253 233 230 231 224 218 213 208 209 211 213 204 192 178 184 187 197 202 203 201 198 195
48 73 65 34 28 358 332 312 310 306 300 314 324 312 309 303 291 291 285 269 258 253 241 238 240 235 229 222 217 214 213 212 206 190 178 187 190 196 205 206 205 202 199
154 86 60 14 8 342 328 311 307 297 303 293 277 298 300 303 302 296 286 277 262 263 264 262 257 248 241 236 229 224 218 214 209 195 182 182 189 199 206 211 209 206 203
141 117 103 0 352 321 309 294 293 299 303 285 280 288 291 287 292 296 285 277 276 268 256 263 260 255 245 239 235 233 227 217 213 204 190 185 186 193 205 213 215 210 207
145 145 167 163 296 296 281 267 275 283 290 280 283 277 280 278 275 271 271 274 276 271 262 260 264 258 252 244 240 235 228 220 216 211 200 192 190 190 193 207 214 213 210
151 157 196 196 255 279 275 273 279 283 288 289 280 274 277 270 267 264 262 263 272 267 262 253 256 260 254 244 252 247 233 230 223 218 208 198 192 192 193 199 203 210 209
164 183 221 239 266 274 266 270 266 261 271 277 264 270 274 274 271 257 260 252 255 256 256 256 257 255 257 245 254 261 255 237 223 221 219 205 199 195 190 194 196 196 201
178 189 235 242 257 265 248 240 236 241 242 244 251 253 252 259 262 263 252 248 245 254 259 257 253 253 253 221 213 228 252 249 231 222 215 212 205 197 196 196 191 190 193
176 198 272 273 271 266 255 247 257 262 263 259 261 251 245 249 252 253 250 247 242 241 250 252 245 241 245 234 210 204 214 227 247 229 218 215 208 206 203 196 195 190 190
200 197 251 264 266 262 259 250 248 252 254 255 249 248 247 243 245 248 247 246 242 242 247 251 251 247 238 234 231 233 233 233 216 236 234 221 215 211 206 203 201 195 190
200 206 232 255 260 258 255 253 250 252 251 254 259 258 255 246 237 238 239 240 243 243 244 247 249 246 242 236 230 232 237 241 238 223 231 220 220 215 209 204 201 197 190
216 222 241 257 261 260 254 253 250 252 256 261 265 259 254 250 242 237 237 237 243 246 245 245 244 242 245 245 237 230 220 215 218 220 223 215 218 221 212 207 202 198 193